,,Stat6,,Stat2,,Stat8,,Stat9,,Stat10,,Wind1,,Wind1,
time,status,PA1M_AVG,status,PR1M_SUM,status,RH1M_AVG,status,SR1M_AVG,status,TA1M_AVG,status,W1dAve1m,status,W1sAve1m,
2009-03-15, 00:00:00,VALID,918.349,VALID,0,VALID,100,VALID,0.0169808,VALID,20.5398,VALID,104,VALID,0,
2009-03-15, 00:01:00,VALID,918.319,VALID,0,VALID,100,VALID,0.0169808,VALID,20.5105,VALID,104,VALID,0,
2009-03-15, 00:02:00,VALID,918.284,VALID,0,VALID,100,VALID,0.0169808,VALID,20.4911,VALID,95,VALID,0,
2009-03-15, 00:03:00,VALID,918.263,VALID,0,VALID,100,VALID,0.0339617,VALID,20.4911,VALID,65,VALID,0,
2009-03-15, 00:04:00,VALID,918.24,VALID,0,VALID,100,VALID,0,VALID,20.5008,VALID,66,VALID,0,
2009-03-15, 00:05:00,VALID,918.241,VALID,0,VALID,100,VALID,0.0169808,VALID,20.4946,VALID,71,VALID,0,
2009-03-15, 00:06:00,VALID,918.215,VALID,0,VALID,100,VALID,0,VALID,20.4686,VALID,77,VALID,0,
2009-03-15, 00:07:00,VALID,918.192,VALID,0,VALID,100,VALID,0,VALID,20.4554,VALID,81,VALID,0,
2009-03-15, 00:08:00,VALID,918.171,VALID,0,VALID,100,VALID,-0.0679233,VALID,20.4467,VALID,81,VALID,0,
2009-03-15, 00:09:00,VALID,918.149,VALID,0,VALID,100,VALID,-0.101885,VALID,20.4472,VALID,81,VALID,0,
2009-03-15, 00:10:00,VALID,918.121,VALID,0,VALID,100,VALID,-0.118866,VALID,20.4475,VALID,84,VALID,0,
2009-03-15, 00:11:00,VALID,918.107,VALID,0,VALID,100,VALID,-0.0849042,VALID,20.4547,VALID,86,VALID,0,
2009-03-15, 00:12:00,VALID,918.102,VALID,0,VALID,100,VALID,-0.0849042,VALID,20.4407,VALID,86,VALID,0,
2009-03-15, 00:13:00,VALID,918.092,VALID,0,VALID,100,VALID,-0.0679233,VALID,20.4537,VALID,89,VALID,0,
2009-03-15, 00:14:00,VALID,918.083,VALID,0,VALID,100,VALID,-0.101885,VALID,20.4534,VALID,87,VALID,0,
2009-03-15, 00:15:00,VALID,918.065,VALID,0,VALID,100,VALID,-0.0679233,VALID,20.4764,VALID,73,VALID,0,
2009-03-15, 00:16:00,VALID,918.039,VALID,0,VALID,100,VALID,-0.101885,VALID,20.4672,VALID,73,VALID,0,
2009-03-15, 00:17:00,VALID,918.021,VALID,0,VALID,100,VALID,-0.0849042,VALID,20.4637,VALID,76,VALID,0,
2009-03-15, 00:18:00,VALID,918.007,VALID,0,VALID,100,VALID,-0.101885,VALID,20.4732,VALID,76,VALID,0,
2009-03-15, 00:19:00,VALID,917.989,VALID,0.2,VALID,100,VALID,-0.0849042,VALID,20.4664,VALID,93,VALID,0,
2009-03-15, 00:20:00,VALID,917.969,VALID,0,VALID,100,VALID,-0.101885,VALID,20.4769,VALID,113,VALID,0,
2009-03-15, 00:21:00,VALID,917.947,VALID,0,VALID,100,VALID,-0.0509425,VALID,20.4861,VALID,116,VALID,0,
2009-03-15, 00:22:00,VALID,917.94,VALID,0,VALID,100,VALID,-0.0849042,VALID,20.5056,VALID,116,VALID,0,
2009-03-15, 00:23:00,VALID,917.944,VALID,0,VALID,100,VALID,-0.0849042,VALID,20.5153,VALID,116,VALID,0,
2009-03-15, 00:24:00,VALID,917.934,VALID,0,VALID,100,VALID,-0.0509425,VALID,20.5186,VALID,116,VALID,0,
2009-03-15, 00:25:00,VALID,917.934,VALID,0,VALID,100,VALID,-0.0169808,VALID,20.5378,VALID,116,VALID,0,
2009-03-15, 00:26:00,VALID,917.914,VALID,0,VALID,100,VALID,-0.0679233,VALID,20.564,VALID,116,VALID,0,
2009-03-15, 00:27:00,VALID,917.901,VALID,0,VALID,100,VALID,-0.0679233,VALID,20.5868,VALID,116,VALID,0,
2009-03-15, 00:28:00,VALID,917.896,VALID,0,VALID,100,VALID,-0.0509425,VALID,20.5997,VALID,116,VALID,0,
2009-03-15, 00:29:00,VALID,917.896,VALID,0,VALID,100,VALID,0,VALID,20.6195,VALID,116,VALID,0,
2009-03-15, 00:30:00,VALID,917.89,VALID,0,VALID,100,VALID,-0.0509425,VALID,20.6384,VALID,116,VALID,0,
2009-03-15, 00:31:00,VALID,917.888,VALID,0,VALID,100,VALID,-0.0849042,VALID,20.6422,VALID,116,VALID,0,
2009-03-15, 00:32:00,VALID,917.896,VALID,0,VALID,100,VALID,-0.0509425,VALID,20.6387,VALID,116,VALID,0,
2009-03-15, 00:33:00,VALID,917.888,VALID,0,VALID,100,VALID,-0.0679233,VALID,20.636,VALID,116,VALID,0,
2009-03-15, 00:34:00,VALID,917.894,VALID,0,VALID,100,VALID,-0.0339617,VALID,20.6517,VALID,116,VALID,0,
2009-03-15, 00:35:00,VALID,917.883,VALID,0,VALID,100,VALID,-0.0339617,VALID,20.6582,VALID,116,VALID,0,
2009-03-15, 00:36:00,VALID,917.876,VALID,0,VALID,100,VALID,-0.0679233,VALID,20.6549,VALID,116,VALID,0,
2009-03-15, 00:37:00,VALID,917.883,VALID,0,VALID,100,VALID,-0.0339617,VALID,20.636,VALID,116,VALID,0,
2009-03-15, 00:38:00,VALID,917.867,VALID,0,VALID,100,VALID,-0.101885,VALID,20.6065,VALID,96,VALID,0.0701308,
2009-03-15, 00:39:00,VALID,917.865,VALID,0,VALID,100,VALID,-0.0679233,VALID,20.5868,VALID,83,VALID,0,
2009-03-15, 00:40:00,VALID,917.859,VALID,0,VALID,100,VALID,-0.0339617,VALID,20.577,VALID,82,VALID,0,
2009-03-15, 00:41:00,VALID,917.846,VALID,0,VALID,100,VALID,-0.0339617,VALID,20.5443,VALID,82,VALID,0,
2009-03-15, 00:42:00,VALID,917.826,VALID,0,VALID,100,VALID,0,VALID,20.5381,VALID,87,VALID,0,
2009-03-15, 00:43:00,VALID,917.821,VALID,0,VALID,100,VALID,0,VALID,20.5381,VALID,128,VALID,0,
2009-03-15, 00:44:00,VALID,917.789,VALID,0,VALID,100,VALID,-0.0339617,VALID,20.5375,VALID,128,VALID,0,
2009-03-15, 00:45:00,VALID,917.773,VALID,0,VALID,100,VALID,-0.0339617,VALID,20.5575,VALID,129,VALID,0,
2009-03-15, 00:46:00,VALID,917.749,VALID,0,VALID,100,VALID,-0.0509425,VALID,20.5513,VALID,128,VALID,0,
2009-03-15, 00:47:00,VALID,917.731,VALID,0,VALID,100,VALID,-0.0339617,VALID,20.5316,VALID,132,VALID,0,
2009-03-15, 00:48:00,VALID,917.711,VALID,0,VALID,100,VALID,-0.0509425,VALID,20.5543,VALID,137,VALID,0,
2009-03-15, 00:49:00,VALID,917.707,VALID,0,VALID,100,VALID,-0.0679233,VALID,20.5608,VALID,133,VALID,0,
2009-03-15, 00:50:00,VALID,917.694,VALID,0,VALID,100,VALID,-0.0339617,VALID,20.5546,VALID,132,VALID,0,
2009-03-15, 00:51:00,VALID,917.689,VALID,0,VALID,100,VALID,-0.0339617,VALID,20.5478,VALID,123,VALID,0,
2009-03-15, 00:52:00,VALID,917.706,VALID,0,VALID,100,VALID,-0.0509425,VALID,20.5408,VALID,77,VALID,0,
2009-03-15, 00:53:00,VALID,917.71,VALID,0,VALID,100,VALID,-0.0509425,VALID,20.5283,VALID,77,VALID,0,
2009-03-15, 00:54:00,VALID,917.716,VALID,0,VALID,100,VALID,-0.0509425,VALID,20.5218,VALID,77,VALID,0.0602679,
2009-03-15, 00:55:00,VALID,917.702,VALID,0,VALID,100,VALID,-0.0339617,VALID,20.5251,VALID,75,VALID,0,
2009-03-15, 00:56:00,VALID,917.707,VALID,0,VALID,100,VALID,-0.0849042,VALID,20.5448,VALID,50,VALID,0.325149,
2009-03-15, 00:57:00,VALID,917.686,VALID,0,VALID,100,VALID,-0.0169808,VALID,20.5381,VALID,50,VALID,0,
2009-03-15, 00:58:00,VALID,917.676,VALID,0,VALID,100,VALID,-0.0169808,VALID,20.5253,VALID,50,VALID,0,
2009-03-15, 00:59:00,VALID,917.659,VALID,0,VALID,100,VALID,-0.0509425,VALID,20.4861,VALID,50,VALID,0,
2009-03-15, 01:00:00,VALID,917.631,VALID,0,VALID,100,VALID,-0.0339617,VALID,20.4667,VALID,52,VALID,0,
2009-03-15, 01:01:00,VALID,917.613,VALID,0,VALID,100,VALID,-0.0169808,VALID,20.4439,VALID,63,VALID,0,
2009-03-15, 01:02:00,VALID,917.602,VALID,0,VALID,100,VALID,-0.0339617,VALID,20.4504,VALID,101,VALID,0,
2009-03-15, 01:03:00,VALID,917.586,VALID,0,VALID,100,VALID,-0.0679233,VALID,20.4442,VALID,168,VALID,0.0852865,
2009-03-15, 01:04:00,VALID,917.594,VALID,0,VALID,100,VALID,-0.0339617,VALID,20.4567,VALID,151,VALID,0,
2009-03-15, 01:05:00,VALID,917.588,VALID,0,VALID,100,VALID,-0.0169808,VALID,20.4729,VALID,152,VALID,0,
2009-03-15, 01:06:00,VALID,917.587,VALID,0,VALID,100,VALID,-0.0339617,VALID,20.4602,VALID,152,VALID,0,
2009-03-15, 01:07:00,VALID,917.591,VALID,0,VALID,100,VALID,-0.0339617,VALID,20.4599,VALID,152,VALID,0,
2009-03-15, 01:08:00,VALID,917.584,VALID,0,VALID,100,VALID,-0.0169808,VALID,20.4602,VALID,152,VALID,0,
2009-03-15, 01:09:00,VALID,917.568,VALID,0,VALID,100,VALID,-0.0169808,VALID,20.4437,VALID,151,VALID,0,
2009-03-15, 01:10:00,VALID,917.539,VALID,0,VALID,100,VALID,0,VALID,20.4304,VALID,148,VALID,0,
2009-03-15, 01:11:00,VALID,917.513,VALID,0,VALID,100,VALID,-0.0339617,VALID,20.4272,VALID,148,VALID,0,
2009-03-15, 01:12:00,VALID,917.482,VALID,0,VALID,100,VALID,-0.0169808,VALID,20.4307,VALID,148,VALID,0,
2009-03-15, 01:13:00,VALID,917.465,VALID,0,VALID,100,VALID,-0.0169808,VALID,20.4275,VALID,146,VALID,0,
2009-03-15, 01:14:00,VALID,917.434,VALID,0,VALID,100,VALID,-0.0169808,VALID,20.4147,VALID,146,VALID,0,
2009-03-15, 01:15:00,VALID,917.429,VALID,0,VALID,100,VALID,-0.0339617,VALID,20.418,VALID,146,VALID,0,
2009-03-15, 01:16:00,VALID,917.41,VALID,0,VALID,100,VALID,0,VALID,20.4307,VALID,146,VALID,0,
2009-03-15, 01:17:00,VALID,917.41,VALID,0,VALID,100,VALID,-0.0169808,VALID,20.4375,VALID,146,VALID,0,
2009-03-15, 01:18:00,VALID,917.405,VALID,0,VALID,100,VALID,-0.0339617,VALID,20.4404,VALID,146,VALID,0,
2009-03-15, 01:19:00,VALID,917.389,VALID,0.2,VALID,100,VALID,-0.0339617,VALID,20.4537,VALID,146,VALID,0.0400152,
2009-03-15, 01:20:00,VALID,917.391,VALID,0,VALID,100,VALID,-0.0509425,VALID,20.4372,VALID,145,VALID,0,
2009-03-15, 01:21:00,VALID,917.384,VALID,0.2,VALID,100,VALID,-0.0509425,VALID,20.408,VALID,144,VALID,0,
2009-03-15, 01:22:00,VALID,917.392,VALID,0,VALID,100,VALID,-0.0169808,VALID,20.3953,VALID,145,VALID,0,
2009-03-15, 01:23:00,VALID,917.39,VALID,0,VALID,100,VALID,-0.0509425,VALID,20.395,VALID,157,VALID,0,
2009-03-15, 01:24:00,VALID,917.394,VALID,0,VALID,100,VALID,-0.0339617,VALID,20.4112,VALID,173,VALID,0,
2009-03-15, 01:25:00,VALID,917.397,VALID,0,VALID,100,VALID,-0.0849042,VALID,20.418,VALID,171,VALID,0,
2009-03-15, 01:26:00,VALID,917.383,VALID,0,VALID,100,VALID,-0.0339617,VALID,20.398,VALID,179,VALID,0,
2009-03-15, 01:27:00,VALID,917.365,VALID,0,VALID,100,VALID,-0.0509425,VALID,20.3983,VALID,173,VALID,0,
2009-03-15, 01:28:00,VALID,917.339,VALID,0.2,VALID,100,VALID,0,VALID,20.3885,VALID,172,VALID,0,
2009-03-15, 01:29:00,VALID,917.328,VALID,0,VALID,100,VALID,-0.0509425,VALID,20.3853,VALID,154,VALID,0,
2009-03-15, 01:30:00,VALID,917.316,VALID,0,VALID,100,VALID,-0.0509425,VALID,20.385,VALID,146,VALID,0,
2009-03-15, 01:31:00,VALID,917.305,VALID,0.2,VALID,100,VALID,-0.0679233,VALID,20.3526,VALID,134,VALID,0.0230564,
2009-03-15, 01:32:00,VALID,917.306,VALID,0,VALID,100,VALID,-0.0509425,VALID,20.3501,VALID,125,VALID,0,
2009-03-15, 01:33:00,VALID,917.325,VALID,0.2,VALID,100,VALID,-0.0339617,VALID,20.3401,VALID,125,VALID,0.00117188,
2009-03-15, 01:34:00,VALID,917.327,VALID,0,VALID,100,VALID,-0.0339617,VALID,20.3269,VALID,115,VALID,0.00763081,
2009-03-15, 01:35:00,VALID,917.357,VALID,0,VALID,100,VALID,-0.0849042,VALID,20.3204,VALID,113,VALID,0,
2009-03-15, 01:36:00,VALID,917.361,VALID,0,VALID,100,VALID,-0.0339617,VALID,20.3266,VALID,111,VALID,0,
2009-03-15, 01:37:00,VALID,917.364,VALID,0,VALID,100,VALID,0,VALID,20.3304,VALID,114,VALID,0,
2009-03-15, 01:38:00,VALID,917.359,VALID,0,VALID,100,VALID,-0.0339617,VALID,20.3006,VALID,115,VALID,0,
2009-03-15, 01:39:00,VALID,917.332,VALID,0,VALID,100,VALID,-0.0339617,VALID,20.2909,VALID,106,VALID,0,
2009-03-15, 01:40:00,VALID,917.318,VALID,0,VALID,100,VALID,-0.0339617,VALID,20.2912,VALID,105,VALID,0,
2009-03-15, 01:41:00,VALID,917.302,VALID,0,VALID,100,VALID,-0.0169808,VALID,20.2847,VALID,85,VALID,0,
2009-03-15, 01:42:00,VALID,917.29,VALID,0,VALID,100,VALID,-0.0849042,VALID,20.2814,VALID,83,VALID,0,
2009-03-15, 01:43:00,VALID,917.284,VALID,0,VALID,100,VALID,-0.0509425,VALID,20.2979,VALID,83,VALID,0,
2009-03-15, 01:44:00,VALID,917.279,VALID,0,VALID,100,VALID,-0.0509425,VALID,20.3274,VALID,83,VALID,0,
2009-03-15, 01:45:00,VALID,917.262,VALID,0,VALID,100,VALID,-0.0849042,VALID,20.3596,VALID,83,VALID,0,
2009-03-15, 01:46:00,VALID,917.247,VALID,0,VALID,100,VALID,-0.0509425,VALID,20.3758,VALID,75,VALID,0,
2009-03-15, 01:47:00,VALID,917.237,VALID,0,VALID,100,VALID,-0.0169808,VALID,20.3688,VALID,74,VALID,0,
2009-03-15, 01:48:00,VALID,917.226,VALID,0,VALID,100,VALID,-0.0509425,VALID,20.3758,VALID,71,VALID,0,
2009-03-15, 01:49:00,VALID,917.212,VALID,0,VALID,100,VALID,-0.0509425,VALID,20.3888,VALID,71,VALID,0,
2009-03-15, 01:50:00,VALID,917.184,VALID,0,VALID,100,VALID,-0.0849042,VALID,20.369,VALID,71,VALID,0,
2009-03-15, 01:51:00,VALID,917.165,VALID,0,VALID,100,VALID,-0.0509425,VALID,20.3626,VALID,71,VALID,0,
2009-03-15, 01:52:00,VALID,917.145,VALID,0,VALID,100,VALID,-0.0509425,VALID,20.3655,VALID,71,VALID,0,
2009-03-15, 01:53:00,VALID,917.114,VALID,0,VALID,100,VALID,0,VALID,20.3975,VALID,71,VALID,0,
2009-03-15, 01:54:00,VALID,917.083,VALID,0,VALID,100,VALID,0.0169808,VALID,20.4035,VALID,71,VALID,0,
2009-03-15, 01:55:00,VALID,917.04,VALID,0,VALID,100,VALID,0.0509425,VALID,20.4127,VALID,71,VALID,0,
2009-03-15, 01:56:00,VALID,916.998,VALID,0,VALID,100,VALID,0.0169808,VALID,20.4164,VALID,71,VALID,0,
2009-03-15, 01:57:00,VALID,916.977,VALID,0,VALID,100,VALID,0.0849042,VALID,20.3935,VALID,71,VALID,0,
2009-03-15, 01:58:00,VALID,916.932,VALID,0,VALID,100,VALID,0,VALID,20.3548,VALID,71,VALID,0,
2009-03-15, 01:59:00,VALID,916.914,VALID,0,VALID,100,VALID,0,VALID,20.2669,VALID,72,VALID,0,
2009-03-15, 02:00:00,VALID,916.886,VALID,0,VALID,100,VALID,0.0339617,VALID,20.2217,VALID,80,VALID,0,
2009-03-15, 02:01:00,VALID,916.868,VALID,0,VALID,100,VALID,0.0169808,VALID,20.176,VALID,90,VALID,0.0686773,
2009-03-15, 02:02:00,VALID,916.842,VALID,0,VALID,100,VALID,0.0509425,VALID,20.1503,VALID,96,VALID,0.00142045,
2009-03-15, 02:03:00,VALID,916.832,VALID,0,VALID,100,VALID,0.0169808,VALID,20.1341,VALID,100,VALID,0.00114329,
2009-03-15, 02:04:00,VALID,916.821,VALID,0,VALID,100,VALID,0.0339617,VALID,20.1114,VALID,104,VALID,0,
2009-03-15, 02:05:00,VALID,916.799,VALID,0,VALID,100,VALID,0.0679233,VALID,20.0984,VALID,118,VALID,0.00114329,
2009-03-15, 02:06:00,VALID,916.779,VALID,0,VALID,100,VALID,0.0679233,VALID,20.0912,VALID,115,VALID,0.00266768,
2009-03-15, 02:07:00,VALID,916.76,VALID,0,VALID,100,VALID,0.0509425,VALID,20.0984,VALID,127,VALID,0,
2009-03-15, 02:08:00,VALID,916.735,VALID,0,VALID,100,VALID,-0.0169808,VALID,20.0989,VALID,132,VALID,0,
2009-03-15, 02:09:00,VALID,916.716,VALID,0,VALID,100,VALID,-0.0169808,VALID,20.1032,VALID,158,VALID,0,
2009-03-15, 02:10:00,VALID,916.695,VALID,0,VALID,100,VALID,-0.0339617,VALID,20.1127,VALID,139,VALID,0.0450721,
2009-03-15, 02:11:00,VALID,916.672,VALID,0,VALID,100,VALID,-0.0849042,VALID,20.1224,VALID,139,VALID,0.0704985,
2009-03-15, 02:12:00,VALID,916.644,VALID,0,VALID,100,VALID,-0.0339617,VALID,20.1224,VALID,131,VALID,0.0168586,
2009-03-15, 02:13:00,VALID,916.63,VALID,0,VALID,100,VALID,-0.0679233,VALID,20.1119,VALID,132,VALID,0.0326705,
2009-03-15, 02:14:00,VALID,916.625,VALID,0,VALID,100,VALID,-0.0169808,VALID,20.1192,VALID,110,VALID,0.0168968,
2009-03-15, 02:15:00,VALID,916.621,VALID,0,VALID,100,VALID,0,VALID,20.1059,VALID,130,VALID,0.000186012,
2009-03-15, 02:16:00,VALID,916.614,VALID,0,VALID,100,VALID,-0.0509425,VALID,20.1162,VALID,114,VALID,0.0110828,
2009-03-15, 02:17:00,VALID,916.613,VALID,0,VALID,100,VALID,-0.101885,VALID,20.1127,VALID,113,VALID,0,
2009-03-15, 02:18:00,VALID,916.625,VALID,0,VALID,100,VALID,-0.0849042,VALID,20.1102,VALID,105,VALID,0,
2009-03-15, 02:19:00,VALID,916.63,VALID,0,VALID,100,VALID,-0.0679233,VALID,20.1002,VALID,93,VALID,0,
2009-03-15, 02:20:00,VALID,916.633,VALID,0,VALID,100,VALID,-0.118866,VALID,20.1097,VALID,93,VALID,0,
2009-03-15, 02:21:00,VALID,916.643,VALID,0,VALID,100,VALID,-0.0849042,VALID,20.1132,VALID,103,VALID,0,
2009-03-15, 02:22:00,VALID,916.646,VALID,0,VALID,100,VALID,-0.101885,VALID,20.0932,VALID,110,VALID,0,
2009-03-15, 02:23:00,VALID,916.633,VALID,0,VALID,100,VALID,-0.101885,VALID,20.0867,VALID,150,VALID,0,
2009-03-15, 02:24:00,VALID,916.644,VALID,0,VALID,100,VALID,-0.0339617,VALID,20.0962,VALID,144,VALID,0,
2009-03-15, 02:25:00,VALID,916.654,VALID,0,VALID,100,VALID,0,VALID,20.0997,VALID,151,VALID,0,
2009-03-15, 02:26:00,VALID,916.653,VALID,0,VALID,100,VALID,-0.0679233,VALID,20.1097,VALID,123,VALID,0,
2009-03-15, 02:27:00,VALID,916.66,VALID,0,VALID,100,VALID,-0.0509425,VALID,20.1062,VALID,123,VALID,0,
2009-03-15, 02:28:00,VALID,916.658,VALID,0,VALID,100,VALID,-0.0339617,VALID,20.0999,VALID,164,VALID,0,
2009-03-15, 02:29:00,VALID,916.641,VALID,0,VALID,100,VALID,-0.0509425,VALID,20.1194,VALID,189,VALID,0,
2009-03-15, 02:30:00,VALID,916.635,VALID,0,VALID,100,VALID,-0.0339617,VALID,20.1192,VALID,153,VALID,0,
2009-03-15, 02:31:00,VALID,916.604,VALID,0,VALID,100,VALID,-0.0509425,VALID,20.1162,VALID,149,VALID,0,
2009-03-15, 02:32:00,VALID,916.583,VALID,0,VALID,100,VALID,-0.0339617,VALID,20.1319,VALID,153,VALID,0.0490057,
2009-03-15, 02:33:00,VALID,916.55,VALID,0,VALID,100,VALID,-0.0169808,VALID,20.1486,VALID,155,VALID,0.00243056,
2009-03-15, 02:34:00,VALID,916.527,VALID,0,VALID,100,VALID,-0.0509425,VALID,20.1451,VALID,152,VALID,0,
2009-03-15, 02:35:00,VALID,916.513,VALID,0,VALID,100,VALID,-0.0339617,VALID,20.1451,VALID,140,VALID,0,
2009-03-15, 02:36:00,VALID,916.49,VALID,0,VALID,100,VALID,-0.0339617,VALID,20.1321,VALID,131,VALID,0,
2009-03-15, 02:37:00,VALID,916.468,VALID,0,VALID,100,VALID,-0.0169808,VALID,20.1321,VALID,141,VALID,0,
2009-03-15, 02:38:00,VALID,916.465,VALID,0,VALID,100,VALID,-0.0339617,VALID,20.1254,VALID,142,VALID,0,
2009-03-15, 02:39:00,VALID,916.452,VALID,0,VALID,100,VALID,-0.0169808,VALID,20.1221,VALID,141,VALID,0,
2009-03-15, 02:40:00,VALID,916.452,VALID,0,VALID,100,VALID,-0.0169808,VALID,20.1291,VALID,148,VALID,0,
2009-03-15, 02:41:00,VALID,916.456,VALID,0,VALID,100,VALID,-0.0339617,VALID,20.1154,VALID,156,VALID,0,
2009-03-15, 02:42:00,VALID,916.456,VALID,0,VALID,100,VALID,-0.0339617,VALID,20.1321,VALID,159,VALID,0,
2009-03-15, 02:43:00,VALID,916.476,VALID,0,VALID,100,VALID,-0.0169808,VALID,20.1346,VALID,171,VALID,0,
2009-03-15, 02:44:01,VALID,916.48,VALID,0,VALID,100,VALID,0,VALID,20.1479,VALID,181,VALID,0,
2009-03-15, 02:45:00,VALID,916.479,VALID,0,VALID,100,VALID,0,VALID,20.1708,VALID,181,VALID,0,
2009-03-15, 02:46:00,VALID,916.488,VALID,0,VALID,100,VALID,-0.0679233,VALID,20.1903,VALID,181,VALID,0,
2009-03-15, 02:47:00,VALID,916.489,VALID,0,VALID,100,VALID,-0.0849042,VALID,20.22,VALID,181,VALID,0,
2009-03-15, 02:48:00,VALID,916.47,VALID,0,VALID,100,VALID,-0.0169808,VALID,20.21,VALID,181,VALID,0,
2009-03-15, 02:49:00,VALID,916.443,VALID,0,VALID,100,VALID,0,VALID,20.2065,VALID,182,VALID,0,
2009-03-15, 02:50:01,VALID,916.431,VALID,0,VALID,100,VALID,-0.0339617,VALID,20.2068,VALID,191,VALID,0,
2009-03-15, 02:51:00,VALID,916.406,VALID,0,VALID,100,VALID,-0.0339617,VALID,20.2233,VALID,191,VALID,0,
2009-03-15, 02:52:00,VALID,916.379,VALID,0,VALID,100,VALID,-0.0169808,VALID,20.2262,VALID,191,VALID,0,
2009-03-15, 02:53:00,VALID,916.35,VALID,0,VALID,100,VALID,-0.0339617,VALID,20.242,VALID,191,VALID,0,
2009-03-15, 02:54:01,VALID,916.337,VALID,0,VALID,100,VALID,-0.0509425,VALID,20.2747,VALID,191,VALID,0,
2009-03-15, 02:55:00,VALID,916.32,VALID,0,VALID,100,VALID,0.0169808,VALID,20.2682,VALID,191,VALID,0,
2009-03-15, 02:56:00,VALID,916.313,VALID,0,VALID,100,VALID,-0.0169808,VALID,20.2714,VALID,191,VALID,0,
2009-03-15, 02:57:00,VALID,916.319,VALID,0,VALID,100,VALID,-0.0169808,VALID,20.2525,VALID,191,VALID,0,
2009-03-15, 02:58:00,VALID,916.32,VALID,0,VALID,100,VALID,0,VALID,20.2555,VALID,191,VALID,0,
2009-03-15, 02:59:00,VALID,916.334,VALID,0,VALID,100,VALID,0,VALID,20.2422,VALID,191,VALID,0,
2009-03-15, 03:00:00,VALID,916.337,VALID,0,VALID,100,VALID,-0.0169808,VALID,20.233,VALID,191,VALID,0,
2009-03-15, 03:01:00,VALID,916.337,VALID,0,VALID,100,VALID,0,VALID,20.1938,VALID,190,VALID,0,
2009-03-15, 03:02:01,VALID,916.335,VALID,0,VALID,100,VALID,-0.0339617,VALID,20.1676,VALID,188,VALID,0,
2009-03-15, 03:03:00,VALID,916.323,VALID,0,VALID,100,VALID,-0.0339617,VALID,20.1549,VALID,188,VALID,0,
2009-03-15, 03:04:00,VALID,916.315,VALID,0,VALID,100,VALID,-0.0509425,VALID,20.1449,VALID,188,VALID,0,
2009-03-15, 03:05:00,VALID,916.303,VALID,0,VALID,100,VALID,-0.0169808,VALID,20.1354,VALID,188,VALID,0,
2009-03-15, 03:06:01,VALID,916.297,VALID,0,VALID,100,VALID,-0.0169808,VALID,20.1324,VALID,188,VALID,0,
2009-03-15, 03:07:00,VALID,916.296,VALID,0,VALID,100,VALID,-0.0509425,VALID,20.1094,VALID,179,VALID,0,
2009-03-15, 03:08:00,VALID,916.298,VALID,0,VALID,100,VALID,-0.0509425,VALID,20.0934,VALID,153,VALID,0,
2009-03-15, 03:09:00,VALID,916.304,VALID,0,VALID,100,VALID,-0.0339617,VALID,20.0997,VALID,153,VALID,0,
2009-03-15, 03:10:00,VALID,916.323,VALID,0,VALID,100,VALID,-0.0169808,VALID,20.0959,VALID,153,VALID,0,
2009-03-15, 03:11:00,VALID,916.327,VALID,0,VALID,100,VALID,0,VALID,20.0964,VALID,153,VALID,0,
2009-03-15, 03:12:01,VALID,916.317,VALID,0,VALID,100,VALID,0,VALID,20.0967,VALID,141,VALID,0,
2009-03-15, 03:13:00,VALID,916.311,VALID,0,VALID,100,VALID,-0.0169808,VALID,20.0473,VALID,104,VALID,0,
2009-03-15, 03:14:00,VALID,916.295,VALID,0,VALID,100,VALID,-0.0339617,VALID,20.0445,VALID,75,VALID,0,
2009-03-15, 03:15:00,VALID,916.29,VALID,0,VALID,100,VALID,-0.0509425,VALID,20.0188,VALID,74,VALID,0,
2009-03-15, 03:16:01,VALID,916.295,VALID,0,VALID,100,VALID,-0.0169808,VALID,20.0018,VALID,74,VALID,0,
2009-03-15, 03:17:01,VALID,916.299,VALID,0,VALID,100,VALID,-0.0169808,VALID,20.0021,VALID,74,VALID,0,
2009-03-15, 03:18:01,VALID,916.299,VALID,0,VALID,100,VALID,-0.0509425,VALID,19.9666,VALID,74,VALID,0,
2009-03-15, 03:19:00,VALID,916.303,VALID,0,VALID,100,VALID,-0.0339617,VALID,19.9407,VALID,74,VALID,0,
2009-03-15, 03:20:01,VALID,916.307,VALID,0,VALID,100,VALID,-0.0169808,VALID,19.9239,VALID,74,VALID,0,
2009-03-15, 03:21:01,VALID,916.295,VALID,0,VALID,100,VALID,-0.0339617,VALID,19.9239,VALID,74,VALID,0,
2009-03-15, 03:22:01,VALID,916.283,VALID,0,VALID,100,VALID,-0.0339617,VALID,19.915,VALID,74,VALID,0,
2009-03-15, 03:23:00,VALID,916.266,VALID,0,VALID,100,VALID,-0.0509425,VALID,19.8563,VALID,74,VALID,0,
2009-03-15, 03:24:00,VALID,916.261,VALID,0,VALID,100,VALID,-0.0509425,VALID,19.8436,VALID,74,VALID,0,
2009-03-15, 03:25:00,VALID,916.25,VALID,0,VALID,100,VALID,-0.0509425,VALID,19.8236,VALID,74,VALID,0,
2009-03-15, 03:26:01,VALID,916.26,VALID,0,VALID,100,VALID,-0.0339617,VALID,19.8036,VALID,74,VALID,0,
2009-03-15, 03:27:00,VALID,916.267,VALID,0,VALID,100,VALID,-0.0339617,VALID,19.7969,VALID,70,VALID,0,
2009-03-15, 03:28:00,VALID,916.287,VALID,0,VALID,100,VALID,-0.0339617,VALID,19.8039,VALID,69,VALID,0,
2009-03-15, 03:29:01,VALID,916.31,VALID,0,VALID,100,VALID,-0.0339617,VALID,19.7877,VALID,69,VALID,0,
2009-03-15, 03:30:01,VALID,916.31,VALID,0,VALID,100,VALID,0,VALID,19.7809,VALID,69,VALID,0,
2009-03-15, 03:31:01,VALID,916.336,VALID,0,VALID,100,VALID,0,VALID,19.7812,VALID,69,VALID,0,
2009-03-15, 03:32:01,VALID,916.346,VALID,0,VALID,100,VALID,-0.0509425,VALID,19.7779,VALID,69,VALID,0,
2009-03-15, 03:33:01,VALID,916.361,VALID,0,VALID,100,VALID,-0.0339617,VALID,19.7974,VALID,69,VALID,0,
2009-03-15, 03:34:01,VALID,916.358,VALID,0,VALID,100,VALID,-0.0339617,VALID,19.8231,VALID,69,VALID,0,
2009-03-15, 03:35:01,VALID,916.365,VALID,0,VALID,100,VALID,0,VALID,19.8326,VALID,69,VALID,0,
2009-03-15, 03:36:01,VALID,916.358,VALID,0,VALID,100,VALID,0,VALID,19.8201,VALID,69,VALID,0,
2009-03-15, 03:37:01,VALID,916.347,VALID,0,VALID,100,VALID,-0.0169808,VALID,19.7872,VALID,69,VALID,0,
2009-03-15, 03:38:00,VALID,916.336,VALID,0,VALID,100,VALID,-0.0849042,VALID,19.7917,VALID,69,VALID,0,
2009-03-15, 03:39:00,VALID,916.327,VALID,0,VALID,100,VALID,-0.118866,VALID,19.7994,VALID,69,VALID,0,
2009-03-15, 03:40:00,VALID,916.336,VALID,0,VALID,100,VALID,-0.118866,VALID,19.7919,VALID,69,VALID,0,
2009-03-15, 03:41:00,VALID,916.34,VALID,0,VALID,100,VALID,-0.118866,VALID,19.8081,VALID,69,VALID,0,
2009-03-15, 03:42:00,VALID,916.344,VALID,0,VALID,100,VALID,-0.135847,VALID,19.8413,VALID,69,VALID,0,
2009-03-15, 03:43:00,VALID,916.363,VALID,0,VALID,100,VALID,-0.135847,VALID,19.8279,VALID,69,VALID,0,
2009-03-15, 03:44:00,VALID,916.372,VALID,0,VALID,100,VALID,-0.135847,VALID,19.8313,VALID,69,VALID,0,
2009-03-15, 03:45:00,VALID,916.357,VALID,0,VALID,100,VALID,-0.135847,VALID,19.8049,VALID,69,VALID,0,
2009-03-15, 03:46:00,VALID,916.355,VALID,0,VALID,100,VALID,-0.118866,VALID,19.8114,VALID,69,VALID,0,
2009-03-15, 03:47:00,VALID,916.358,VALID,0,VALID,100,VALID,-0.118866,VALID,19.8121,VALID,69,VALID,0,
2009-03-15, 03:48:00,VALID,916.34,VALID,0,VALID,100,VALID,-0.101885,VALID,19.8016,VALID,69,VALID,0,
2009-03-15, 03:49:00,VALID,916.322,VALID,0,VALID,100,VALID,-0.101885,VALID,19.8016,VALID,69,VALID,0,
2009-03-15, 03:50:00,VALID,916.307,VALID,0,VALID,100,VALID,-0.101885,VALID,19.8144,VALID,69,VALID,0,